Milton, FL

1:13 AM CDT on July 27, 2017 (GMT -0500)
Whiting Field Naval Air Station (South)

Weather History for KNDZ - September, 2013

Change the Weather History Date:

Tuesday, September 17, 2013

  Actual Average (KNSE) Record (KNSE)
Temperature  
Mean Temperature 82 °F -  
Max Temperature 91 °F 83 °F 96 °F (1997)
Min Temperature 73 °F 67 °F 60 °F (1999)
Cooling Degree Days 17    
Growing Degree Days 32 (Base 50)    
Moisture  
Dew Point 71 °F    
Average Humidity 78    
Maximum Humidity 94    
Minimum Humidity 50    
Precipitation  
Precipitation 0.55 in - - ()
Sea Level Pressure  
Sea Level Pressure 30.01 in    
Wind  
Wind Speed 5 mph (ENE)    
Max Wind Speed 16 mph    
Max Gust Speed 22 mph    
Visibility 9 miles    
Events Rain , Thunderstorm    
Averages and records for this station are not official NWS values.
T = Trace of Precipitation, MM = Missing Value Source: NWS Daily Summary

Daily Weather History Graph

Daily Weather History Graph

Search for Another Location

Airport or City:

Trip Planner

Search our weather history database for the weather conditions in past years. The results will help you decide how hot, cold, wet, or windy it might be!

Date:

Astronomy

Sep. 17, 2013 Rise Set
Actual Time 6:33 AM CDT 6:50 PM CDT
Civil Twilight 6:09 AM CDT 7:14 PM CDT
Nautical Twilight 5:41 AM CDT 7:42 PM CDT
Astronomical Twilight 5:12 AM CDT 8:11 PM CDT
Moon 5:34 PM CDT (9/17) 4:33 AM CDT (9/17)
Length of Visible Light 13h 05m
Length of Day
12h 17m
Waxing Gibbous, 96% of the Moon is Illuminated
Sep 17
Waxing Gibbous
Sep 19
Full
Sep 26
Last Quarter
Oct 4
New
Oct 11
First Quarter

Hourly Weather History & Observations

Time (CDT) Temp. Heat Index Dew Point Humidity Pressure Visibility Wind Dir Wind Speed Gust Speed Precip Events Conditions
12:56 AM 73.0 °F - 71.1 °F 93% 30.00 in 10.0 mi WNW 3.5 mph - N/A   Scattered Clouds
1:56 AM 73.0 °F - 70.0 °F 90% 29.99 in 10.0 mi Calm Calm - N/A   Clear
2:56 AM 73.9 °F - 70.0 °F 87% 29.99 in 10.0 mi NNE 4.6 mph - N/A   Clear
3:56 AM 73.0 °F - 70.0 °F 90% 29.99 in 10.0 mi NNE 5.8 mph - N/A   Clear
4:56 AM 73.9 °F - 70.0 °F 87% 29.98 in 10.0 mi NNE 6.9 mph - N/A   Clear
5:56 AM 73.0 °F - 69.1 °F 87% 30.00 in 10.0 mi NE 5.8 mph - N/A   Partly Cloudy
6:56 AM 73.0 °F - 69.1 °F 87% 30.02 in 10.0 mi ENE 4.6 mph - N/A   Scattered Clouds
7:56 AM 75.9 °F - 70.0 °F 82% 30.03 in 10.0 mi NNE 5.8 mph - N/A   Partly Cloudy
8:56 AM 80.1 °F 83.8 °F 72.0 °F 76% 30.04 in 8.0 mi ENE 5.8 mph - N/A   Clear
9:56 AM 84.9 °F 91.4 °F 73.0 °F 67% 30.04 in 8.0 mi ENE 4.6 mph - N/A   Scattered Clouds
10:56 AM 88.0 °F 94.7 °F 72.0 °F 59% 30.04 in 8.0 mi East 6.9 mph - N/A   Partly Cloudy
11:56 AM 90.0 °F 96.4 °F 71.1 °F 54% 30.03 in 10.0 mi Variable 5.8 mph - N/A   Scattered Clouds
12:56 PM 91.0 °F 96.6 °F 70.0 °F 50% 30.00 in 10.0 mi Variable 4.6 mph - N/A   Mostly Cloudy
1:56 PM 87.1 °F 93.6 °F 72.0 °F 61% 29.99 in 10.0 mi South 13.8 mph - N/A   Mostly Cloudy
2:01 PM 84.2 °F 89.6 °F 71.6 °F 66% 30.03 in 10.0 mi South 16.1 mph 21.9 mph N/A Thunderstorm Mostly Cloudy
2:43 PM 80.6 °F 84.6 °F 71.6 °F 74% 30.03 in 7.0 mi Calm Calm - 0.01 in Thunderstorm Thunderstorm
2:56 PM 79.0 °F - 73.0 °F 82% 29.98 in 9.0 mi WNW 3.5 mph - 0.03 in Rain , Thunderstorm Light Thunderstorms and Rain
3:23 PM 84.2 °F 89.6 °F 71.6 °F 66% 30.01 in 10.0 mi Variable 3.5 mph - 0.00 in   Mostly Cloudy
3:56 PM 86.0 °F 91.5 °F 71.1 °F 61% 29.95 in 10.0 mi Calm Calm - 0.00 in   Mostly Cloudy
4:56 PM 87.1 °F 92.8 °F 71.1 °F 59% 29.95 in 10.0 mi SSE 3.5 mph - N/A   Mostly Cloudy
5:56 PM 84.9 °F 90.7 °F 72.0 °F 65% 29.95 in 10.0 mi South 4.6 mph - N/A   Mostly Cloudy
6:56 PM 81.0 °F 85.8 °F 73.0 °F 77% 29.96 in 10.0 mi South 3.5 mph - N/A   Mostly Cloudy
7:19 PM 82.4 °F 88.2 °F 73.4 °F 74% 30.02 in 10.0 mi ESE 4.6 mph - N/A Thunderstorm Thunderstorm
7:48 PM 73.4 °F - 71.6 °F 94% 30.04 in 2.0 mi SE 3.5 mph 20.7 mph 0.21 in Rain , Thunderstorm Heavy Thunderstorms and Rain
7:56 PM 75.0 °F - 71.1 °F 87% 30.00 in 6.0 mi ENE 5.8 mph - 0.22 in Rain , Thunderstorm Light Thunderstorms and Rain
8:25 PM 73.4 °F - 71.6 °F 94% 30.05 in 10.0 mi North 5.8 mph - 0.00 in Rain Light Rain
8:56 PM 75.0 °F - 71.1 °F 87% 30.00 in 10.0 mi NNE 5.8 mph - 0.00 in   Overcast
9:56 PM 75.0 °F - 72.0 °F 90% 30.01 in 10.0 mi East 5.8 mph - N/A   Overcast
10:56 PM 73.9 °F - 71.1 °F 91% 30.02 in 10.0 mi SSE 10.4 mph - 0.16 in Rain Light Rain
11:56 PM 73.9 °F - 71.1 °F 91% 30.04 in 10.0 mi NE 12.7 mph - 0.14 in Rain Light Rain